STARLINK-1036 (44741 NORAD) Tracking and Keplerian Element Data

This shows tracking and keplerian element data for the satellite.

Feedback or suggestion? Click here.




ElementValue
Catalog44741
NameSTARLINK-1036
Epoch Orbit1141
Epoch Day23.25001157
Epoch Year2020
RAAN172.3123
Inclination53.0059
Eccentricity0.000135
Argument of Perigee78.3683
Mean Anonmoly249.4355
Mean Motion15.33643395
Decay Rate-0.00047261
L11 44741U 19074AE 20023.25001157 -.00047261 00000-0 -14302-2 0 9993
L22 44741 53.0059 172.3123 0001350 78.3683 249.4355 15.33643395 11418

Live tracking and technical data element details for STARLINK-1036 (NORAD 44741). STARLINK-1036 can be tracked NOW for your location showing map with azimuth and elevation plus other details from your city location.

Track the satellite on the map from your city or location and see movement details for azimuth, elevation, latitude, longitude, range, height, and movement on the map or in text.







IsCatalogInMostPopularTable: catalog: 44741, numindb: 13
Update: records affected: 1



GetName: 44741 STARLINK-1036

Hit Count: updated at: Fri, 24 Jan 2020 15:17:54 GMT